Weather in Lipetsk

Russia / Lipetsk Oblast     52°36′31″N   39°35′57″E
temp.,
°C
wind,
m/s
gust,
m/s
humid.,
%
clouds,
%
prec.,
mm/h
press.,
hPa
HPBL,
m
22 april, thu
thu2200:00+5ssw369466 0.1 1016164
03:00+4sw389584 0.1 1017207
06:00+4sw36945 0.0 1018138
09:00+8sw46765 0.0 1019558
12:00+13sw565557 0.0 10191664
15:00+14sw4756100 0.1 10191617
18:00+13s476449 0.0 1019390
21:00+9s3775100 0.0 1020131
23 april, fri
fri2300:00+8s347880 0.0 102067
03:00+8s337993 0.0 102047
06:00+9s3781100 0.0 1019147
09:00+13s576076 0.0 1019564
12:00+15ssw5748100 0.3 10182144
15:00+16s574790 0.3 10161899
18:00+14sse376197 0.0 1015267
21:00+11sse5127668 0.0 1014317
24 april, sat
sat2400:00+11sse6137649 0.0 1011379
03:00+9s51281100 0.1 1009564
06:00+5wnw6993100 1.4 1011708
09:00+7wnw6774100 1.4 10121024
12:00+8w466589 0.1 10111270
15:00+10wsw6749100 0.9 10101884
18:00+9w46588 0.9 10101077
21:00+5w4784100 1.7 1012448
25 april, sun
sun2500:00+4w61080100 0.1 1012767
03:00+2w713815 0.1 1014647
06:00+1wsw512855 0.0 1015497
09:00+5wsw710645 0.0 10161197
12:00+8w794589 0.2 10162300
15:00+9wsw71142100 0.3 10162442
18:00+8w5106237 0.5 10161452
21:00+6sw277395 0.6 1017255
26 april, mon
mon2600:00+4wsw3109098 0.2 1017606
03:00+3sw358884 0.2 1017218
06:00+4sw1392100 0.3 1016345
09:00+3nnw1297100 1.6 1016396
12:00+4ssw1295100 0.1 1015333
15:00+7wsw4566100 0.2 10131217
18:00+5sw3681100 0.8 1012789
21:00+3ssw378692 0.9 1012169